�������l�o���
Date,Time,MP-1(��Sv/h),MP-2(��Sv/h),MP-3(��Sv/h),MP-4(��Sv/h),MP-5(��Sv/h),MP-6(��Sv/h),MP-7(��Sv/h),MP-8(��Sv/h),����,����(m/s),���J
2022/08/01,00:00,0.609,0.854,0.543,1.015,0.731,0.344,0.591,0.557,���쐼,0.9,��
2022/08/01,00:10,0.609,0.855,0.542,1.015,0.732,0.344,0.590,0.558,���쐼,0.6,��
2022/08/01,00:20,0.608,0.855,0.543,1.017,0.730,0.345,0.592,0.558,-,CALM,��
2022/08/01,00:30,0.609,0.854,0.541,1.015,0.731,0.343,0.591,0.556,��쐼,1.1,��
2022/08/01,00:40,0.609,0.856,0.542,1.015,0.733,0.346,0.591,0.557,�쐼,1.4,��
2022/08/01,00:50,0.608,0.855,0.542,1.014,0.731,0.345,0.592,0.557,���쐼,2.3,��
2022/08/01,01:00,0.609,0.855,0.541,1.017,0.730,0.345,0.592,0.556,���쐼,3.5,��
2022/08/01,01:10,0.609,0.855,0.542,1.016,0.730,0.344,0.590,0.557,���쐼,2.9,��
2022/08/01,01:20,0.608,0.855,0.541,1.016,0.732,0.344,0.591,0.557,���k��,2.3,��
2022/08/01,01:30,0.608,0.853,0.540,1.018,0.733,0.345,0.592,0.557,�k��,2.5,��
2022/08/01,01:40,0.607,0.854,0.542,1.018,0.732,0.345,0.591,0.557,���k��,2.3,��
2022/08/01,01:50,0.608,0.854,0.542,1.017,0.732,0.344,0.591,0.558,��,1.4,��
2022/08/01,02:00,0.607,0.853,0.541,1.017,0.732,0.345,0.592,0.558,���k��,3.0,��
2022/08/01,02:10,0.609,0.857,0.541,1.016,0.731,0.345,0.591,0.557,�k��,3.0,��
2022/08/01,02:20,0.610,0.856,0.542,1.018,0.730,0.343,0.591,0.558,�k��,4.3,��
2022/08/01,02:30,0.610,0.855,0.543,1.017,0.730,0.345,0.591,0.557,�k��,6.1,��
2022/08/01,02:40,0.611,0.854,0.541,1.017,0.732,0.345,0.591,0.558,�k��,5.6,��
2022/08/01,02:50,0.609,0.855,0.541,1.016,0.728,0.345,0.592,0.557,�k��,4.5,��
2022/08/01,03:00,0.607,0.854,0.541,1.017,0.730,0.346,0.594,0.557,�k��,5.3,��
2022/08/01,03:10,0.607,0.853,0.542,1.016,0.732,0.345,0.592,0.557,�k��,4.2,��
2022/08/01,03:20,0.607,0.854,0.540,1.015,0.730,0.343,0.592,0.558,�k��,4.0,��
2022/08/01,03:30,0.609,0.855,0.542,1.017,0.732,0.344,0.592,0.559,�k��,4.4,��
2022/08/01,03:40,0.608,0.854,0.542,1.017,0.732,0.345,0.592,0.557,�k��,3.8,��
2022/08/01,03:50,0.608,0.853,0.542,1.018,0.732,0.344,0.590,0.558,�k��,4.0,��
2022/08/01,04:00,0.608,0.855,0.541,1.018,0.732,0.345,0.592,0.557,���k��,2.8,��
2022/08/01,04:10,0.609,0.854,0.541,1.015,0.730,0.345,0.592,0.557,���k��,2.5,��
2022/08/01,04:20,0.608,0.855,0.541,1.019,0.731,0.343,0.592,0.558,��,2.0,��
2022/08/01,04:30,0.608,0.855,0.541,1.018,0.730,0.344,0.592,0.557,��,1.5,��
2022/08/01,04:40,0.608,0.855,0.541,1.016,0.729,0.345,0.590,0.557,���쐼,1.1,��
2022/08/01,04:50,0.609,0.852,0.541,1.018,0.730,0.344,0.591,0.557,���쐼,1.4,��
2022/08/01,05:00,0.607,0.854,0.542,1.016,0.729,0.346,0.591,0.557,�쐼,1.2,��
2022/08/01,05:10,0.607,0.854,0.540,1.017,0.731,0.344,0.591,0.558,�쐼,1.2,��
2022/08/01,05:20,0.607,0.857,0.542,1.018,0.730,0.345,0.590,0.558,�쐼,1.7,��
2022/08/01,05:30,0.606,0.855,0.541,1.019,0.730,0.345,0.590,0.556,��,1.2,��
2022/08/01,05:40,0.609,0.856,0.540,1.017,0.729,0.344,0.592,0.558,��,1.2,��
2022/08/01,05:50,0.609,0.854,0.541,1.016,0.731,0.344,0.591,0.557,-,CALM,��
2022/08/01,06:00,0.608,0.854,0.542,1.017,0.732,0.345,0.591,0.558,���쓌,0.6,��
2022/08/01,06:10,0.607,0.855,0.542,1.017,0.731,0.343,0.591,0.558,-,CALM,��
2022/08/01,06:20,0.608,0.854,0.541,1.018,0.730,0.344,0.593,0.558,�k�k��,1.1,��
2022/08/01,06:30,0.608,0.853,0.542,1.017,0.728,0.346,0.592,0.558,�k�k��,1.4,��
2022/08/01,06:40,0.610,0.852,0.541,1.016,0.730,0.346,0.593,0.559,�k,1.4,��
2022/08/01,06:50,0.609,0.854,0.541,1.017,0.730,0.344,0.593,0.559,�k,1.9,��
2022/08/01,07:00,0.608,0.856,0.542,1.015,0.732,0.345,0.594,0.558,�k,2.0,��
2022/08/01,07:10,0.609,0.852,0.540,1.020,0.730,0.344,0.593,0.559,�k�k��,1.9,��
2022/08/01,07:20,0.608,0.854,0.541,1.015,0.729,0.343,0.595,0.558,�k,2.2,��
2022/08/01,07:30,0.608,0.854,0.542,1.016,0.730,0.344,0.594,0.558,�k,1.9,��
2022/08/01,07:40,0.608,0.853,0.542,1.016,0.731,0.345,0.594,0.558,�k,3.0,��
2022/08/01,07:50,0.608,0.855,0.542,1.018,0.730,0.343,0.595,0.558,�k�k��,3.1,��
2022/08/01,08:00,0.608,0.853,0.543,1.017,0.730,0.344,0.595,0.559,�k�k��,2.6,��
2022/08/01,08:10,0.608,0.855,0.541,1.016,0.730,0.345,0.592,0.559,�k�k��,2.6,��
2022/08/01,08:20,0.609,0.854,0.541,1.017,0.732,0.343,0.593,0.559,�k�k��,2.5,��
2022/08/01,08:30,0.610,0.855,0.542,1.021,0.732,0.344,0.594,0.558,�k�k��,3.6,��
2022/08/01,08:40,0.609,0.853,0.541,1.020,0.730,0.343,0.593,0.557,�k�k��,2.6,��
2022/08/01,08:50,0.607,0.853,0.541,1.018,0.732,0.344,0.595,0.555,�k��,2.2,��
2022/08/01,09:00,0.607,0.854,0.542,1.020,0.732,0.344,0.594,0.557,���k��,2.2,��
2022/08/01,09:10,0.609,0.854,0.544,1.020,0.733,0.344,0.593,0.556,��,2.0,��
2022/08/01,09:20,0.610,0.854,0.544,1.018,0.736,0.345,0.594,0.557,��,1.7,��
2022/08/01,09:30,0.609,0.856,0.544,1.017,0.733,0.345,0.594,0.557,���k��,1.7,��
2022/08/01,09:40,0.609,0.856,0.543,1.016,0.734,0.345,0.593,0.557,�k�k��,3.5,��
2022/08/01,09:50,0.610,0.857,0.543,1.019,0.735,0.344,0.592,0.558,�k��,3.6,��
2022/08/01,10:00,0.609,0.858,0.542,1.019,0.735,0.345,0.594,0.557,�k��,3.7,��
2022/08/01,10:10,0.611,0.856,0.544,1.018,0.735,0.344,0.593,0.556,�k�k��,3.4,��
2022/08/01,10:20,0.610,0.858,0.544,1.021,0.736,0.343,0.593,0.558,�k��,3.0,��
2022/08/01,10:30,0.611,0.857,0.544,1.021,0.738,0.343,0.591,0.558,�k��,3.3,��
2022/08/01,10:40,0.610,0.857,0.544,1.023,0.738,0.343,0.593,0.558,�k��,2.8,��
2022/08/01,10:50,0.612,0.858,0.546,1.020,0.735,0.342,0.592,0.557,�k��,2.2,��
2022/08/01,11:00,0.609,0.858,0.543,1.020,0.735,0.343,0.594,0.557,���k��,2.2,��
2022/08/01,11:10,0.609,0.859,0.545,1.020,0.736,0.344,0.591,0.559,���k��,2.0,��
2022/08/01,11:20,0.611,0.856,0.544,1.018,0.737,0.344,0.593,0.558,��,1.5,��
2022/08/01,11:30,0.610,0.858,0.544,1.020,0.736,0.344,0.592,0.558,���k��,2.3,��
2022/08/01,11:40,0.611,0.862,0.544,1.018,0.737,0.344,0.593,0.558,���쓌,2.2,��
2022/08/01,11:50,0.613,0.860,0.543,1.019,0.737,0.344,0.593,0.557,���쓌,3.0,��
2022/08/01,12:00,0.611,0.861,0.545,1.019,0.737,0.343,0.593,0.560,��,2.2,��
2022/08/01,12:10,0.613,0.861,0.543,1.020,0.738,0.345,0.592,0.561,���쓌,2.6,��
2022/08/01,12:20,0.613,0.863,0.544,1.018,0.738,0.345,0.594,0.561,���쓌,2.3,��
2022/08/01,12:30,0.613,0.862,0.544,1.021,0.739,0.344,0.593,0.560,���쓌,2.0,��
2022/08/01,12:40,0.615,0.860,0.545,1.022,0.737,0.346,0.594,0.560,�쓌,2.5,��
2022/08/01,12:50,0.613,0.859,0.544,1.020,0.739,0.344,0.593,0.561,�쓌,2.6,��
2022/08/01,13:00,0.613,0.858,0.545,1.021,0.738,0.344,0.594,0.562,��,2.3,��
2022/08/01,13:10,0.613,0.860,0.545,1.021,0.738,0.345,0.596,0.562,��,1.7,��
2022/08/01,13:20,0.616,0.862,0.546,1.021,0.738,0.343,0.595,0.560,���쓌,2.3,��
2022/08/01,13:30,0.615,0.861,0.545,1.022,0.740,0.345,0.596,0.561,��,2.6,��
2022/08/01,13:40,0.616,0.862,0.545,1.021,0.739,0.346,0.596,0.559,��,1.7,��
2022/08/01,13:50,0.615,0.860,0.546,1.022,0.740,0.344,0.595,0.560,��,2.3,��
2022/08/01,14:00,0.614,0.859,0.543,1.022,0.740,0.346,0.596,0.562,�쓌,2.6,��
2022/08/01,14:10,0.615,0.860,0.545,1.018,0.740,0.345,0.596,0.560,��쓌,2.6,��
2022/08/01,14:20,0.614,0.859,0.547,1.022,0.741,0.345,0.595,0.561,�쓌,3.3,��
2022/08/01,14:30,0.614,0.859,0.544,1.022,0.742,0.346,0.597,0.562,���쓌,3.0,��
2022/08/01,14:40,0.614,0.861,0.543,1.023,0.740,0.345,0.596,0.560,���쓌,2.6,��
2022/08/01,14:50,0.615,0.862,0.544,1.024,0.739,0.346,0.596,0.561,��쓌,3.2,��
2022/08/01,15:00,0.615,0.862,0.544,1.023,0.740,0.347,0.595,0.559,��쓌,2.6,��
2022/08/01,15:10,0.615,0.861,0.545,1.022,0.740,0.347,0.596,0.560,�쓌,3.2,��
2022/08/01,15:20,0.614,0.861,0.545,1.024,0.741,0.347,0.596,0.560,��쓌,2.9,��
2022/08/01,15:30,0.613,0.862,0.546,1.025,0.741,0.346,0.595,0.560,�쓌,3.2,��
2022/08/01,15:40,0.615,0.862,0.547,1.025,0.740,0.347,0.595,0.559,��쓌,2.8,��
2022/08/01,15:50,0.614,0.863,0.545,1.027,0.742,0.345,0.595,0.560,�쓌,2.2,��
2022/08/01,16:00,0.614,0.863,0.545,1.027,0.741,0.348,0.595,0.560,�쓌,2.9,��
2022/08/01,16:10,0.616,0.863,0.547,1.026,0.741,0.346,0.594,0.559,���쓌,1.7,��
2022/08/01,16:20,0.615,0.863,0.545,1.025,0.742,0.345,0.593,0.559,�쓌,2.6,��
2022/08/01,16:30,0.613,0.865,0.545,1.026,0.739,0.345,0.595,0.559,���쓌,1.9,��
2022/08/01,16:40,0.614,0.862,0.544,1.027,0.741,0.346,0.595,0.559,�쓌,2.6,��
2022/08/01,16:50,0.615,0.863,0.546,1.028,0.740,0.346,0.594,0.559,�쓌,2.0,��
2022/08/01,17:00,0.614,0.862,0.545,1.028,0.740,0.346,0.596,0.559,���쓌,2.2,��
2022/08/01,17:10,0.615,0.865,0.545,1.029,0.740,0.345,0.595,0.559,�쓌,2.0,��
2022/08/01,17:20,0.613,0.862,0.544,1.027,0.738,0.346,0.594,0.560,���쓌,2.6,��
2022/08/01,17:30,0.615,0.864,0.546,1.026,0.740,0.344,0.594,0.559,���쓌,2.6,��
2022/08/01,17:40,0.615,0.861,0.545,1.026,0.739,0.344,0.594,0.560,�쓌,1.9,��
2022/08/01,17:50,0.612,0.863,0.544,1.028,0.739,0.344,0.594,0.559,��,1.7,��
2022/08/01,18:00,0.612,0.862,0.545,1.026,0.740,0.346,0.594,0.559,��쐼,0.6,��
2022/08/01,18:10,0.613,0.862,0.544,1.026,0.741,0.345,0.595,0.559,��쓌,2.2,��
2022/08/01,18:20,0.609,0.862,0.544,1.027,0.739,0.346,0.594,0.557,�쓌,1.4,��
2022/08/01,18:30,0.609,0.861,0.546,1.024,0.739,0.344,0.593,0.559,��쓌,1.7,��
2022/08/01,18:40,0.612,0.861,0.544,1.026,0.739,0.344,0.593,0.560,��쓌,2.0,��
2022/08/01,18:50,0.614,0.863,0.543,1.025,0.742,0.345,0.594,0.558,��쓌,1.7,��
2022/08/01,19:00,0.614,0.863,0.545,1.025,0.740,0.344,0.593,0.560,��쓌,1.2,��
2022/08/01,19:10,0.614,0.863,0.544,1.022,0.741,0.345,0.593,0.557,��,0.9,��
2022/08/01,19:20,0.614,0.863,0.544,1.025,0.740,0.344,0.594,0.560,���쓌,1.2,��
2022/08/01,19:30,0.614,0.862,0.544,1.026,0.739,0.345,0.594,0.559,���k��,0.9,��
2022/08/01,19:40,0.614,0.863,0.544,1.026,0.741,0.345,0.593,0.559,�k��,0.6,��
2022/08/01,19:50,0.615,0.863,0.545,1.028,0.741,0.346,0.595,0.558,-,CALM,��
2022/08/01,20:00,0.613,0.861,0.544,1.025,0.739,0.345,0.594,0.559,-,CALM,��
2022/08/01,20:10,0.615,0.862,0.543,1.027,0.740,0.344,0.595,0.558,�k�k��,0.6,��
2022/08/01,20:20,0.614,0.862,0.545,1.025,0.739,0.345,0.593,0.560,�k,0.6,��
2022/08/01,20:30,0.615,0.863,0.544,1.025,0.741,0.345,0.595,0.559,�k�k��,0.9,��
2022/08/01,20:40,0.614,0.863,0.544,1.025,0.740,0.344,0.594,0.560,�k,1.2,��
2022/08/01,20:50,0.613,0.863,0.544,1.027,0.741,0.346,0.593,0.560,�k�k��,1.4,��
2022/08/01,21:00,0.615,0.864,0.545,1.026,0.741,0.345,0.596,0.559,�k,1.4,��
2022/08/01,21:10,0.612,0.863,0.543,1.025,0.740,0.346,0.593,0.560,�k,1.2,��
2022/08/01,21:20,0.615,0.862,0.544,1.025,0.742,0.346,0.594,0.559,�k,1.2,��
2022/08/01,21:30,0.614,0.863,0.545,1.025,0.740,0.346,0.594,0.560,�k,2.3,��
2022/08/01,21:40,0.613,0.862,0.545,1.025,0.738,0.346,0.594,0.558,�k�k��,2.0,��
2022/08/01,21:50,0.614,0.861,0.544,1.026,0.741,0.346,0.593,0.557,�k�k��,1.5,��
2022/08/01,22:00,0.615,0.861,0.544,1.028,0.740,0.346,0.594,0.560,�k�k��,1.4,��
2022/08/01,22:10,0.614,0.862,0.545,1.027,0.740,0.346,0.594,0.557,�k,1.4,��
2022/08/01,22:20,0.614,0.864,0.545,1.026,0.740,0.347,0.595,0.559,�k�k��,0.6,��
2022/08/01,22:30,0.613,0.864,0.545,1.024,0.742,0.345,0.594,0.559,�k�k��,1.1,��
2022/08/01,22:40,0.613,0.860,0.545,1.026,0.739,0.347,0.594,0.558,�k,1.7,��
2022/08/01,22:50,0.613,0.864,0.544,1.026,0.740,0.345,0.595,0.558,�k,1.2,��
2022/08/01,23:00,0.613,0.862,0.545,1.027,0.738,0.346,0.594,0.559,�k,1.5,��
2022/08/01,23:10,0.613,0.861,0.545,1.025,0.739,0.347,0.593,0.560,�k�k��,1.5,��
2022/08/01,23:20,0.612,0.861,0.545,1.027,0.740,0.346,0.595,0.560,�k,2.6,��
2022/08/01,23:30,0.614,0.862,0.544,1.026,0.739,0.345,0.594,0.560,�k,2.0,��
2022/08/01,23:40,0.612,0.863,0.545,1.028,0.740,0.345,0.595,0.561,�k,1.5,��
2022/08/01,23:50,0.612,0.862,0.545,1.025,0.740,0.346,0.595,0.560,�k,1.2,��
